Time,TemperatureF,DewpointF,PressureIn,WindDirection,WindDirectionDegrees,WindSpeedMPH,WindSpeedGustMPH,Humidity,HourlyPrecipIn,Conditions,Clouds,dailyrainin,SolarRadiationWatts/m^2,SoftwareType,DateUTC
2013-12-31 00:02:00,47.0,44.0,-100.00,South,185,3.0,5.0,90,0.00,,,0.00,0.000000,,2013-12-31 05:02:00,
2013-12-31 00:12:00,47.0,44.0,-100.00,South,185,3.0,5.0,90,0.00,,,0.00,0.000000,,2013-12-31 05:12:00,
2013-12-31 00:42:00,46.0,44.0,-100.00,South,177,3.0,5.0,93,0.00,,,0.00,0.000000,,2013-12-31 05:42:00,
2013-12-31 00:53:00,46.0,44.0,-100.00,South,177,3.0,5.0,93,0.00,,,0.00,0.000000,,2013-12-31 05:53:00,
2013-12-31 01:02:00,46.0,44.0,-100.00,South,177,3.0,5.0,93,0.00,,,0.00,0.000000,,2013-12-31 06:02:00,
2013-12-31 01:12:00,46.0,44.0,-100.00,South,177,3.0,5.0,93,0.00,,,0.00,0.000000,,2013-12-31 06:12:00,
2013-12-31 01:43:00,45.0,43.0,-100.00,SSW,200,1.0,4.0,94,0.00,,,0.00,0.000000,,2013-12-31 06:43:00,
2013-12-31 01:52:00,45.0,43.0,-100.00,SSW,200,1.0,4.0,94,0.00,,,0.00,0.000000,,2013-12-31 06:52:00,
2013-12-31 02:02:00,45.0,43.0,-100.00,SSW,200,1.0,4.0,94,0.00,,,0.00,0.000000,,2013-12-31 07:02:00,
2013-12-31 02:12:00,45.0,43.0,-100.00,SSW,200,1.0,4.0,94,0.00,,,0.00,0.000000,,2013-12-31 07:12:00,
2013-12-31 02:42:00,45.0,43.0,-100.00,South,178,2.0,4.0,93,0.00,,,0.00,0.000000,,2013-12-31 07:42:00,
2013-12-31 02:52:00,45.0,43.0,-100.00,South,178,2.0,4.0,93,0.00,,,0.00,0.000000,,2013-12-31 07:52:00,
2013-12-31 03:02:00,45.0,43.0,-100.00,South,178,2.0,4.0,93,0.00,,,0.00,0.000000,,2013-12-31 08:02:00,
2013-12-31 03:12:00,45.0,43.0,-100.00,South,178,2.0,4.0,93,0.00,,,0.00,0.000000,,2013-12-31 08:12:00,
2013-12-31 03:42:00,44.0,42.0,-100.00,South,183,1.0,4.0,92,0.00,,,0.00,0.000000,,2013-12-31 08:42:00,
2013-12-31 03:52:00,44.0,42.0,-100.00,South,183,1.0,4.0,92,0.00,,,0.00,0.000000,,2013-12-31 08:52:00,
2013-12-31 04:02:00,44.0,42.0,-100.00,South,183,1.0,4.0,92,0.00,,,0.00,0.000000,,2013-12-31 09:02:00,
2013-12-31 04:11:00,44.0,42.0,-100.00,South,183,1.0,4.0,92,0.00,,,0.00,0.000000,,2013-12-31 09:11:00,
2013-12-31 04:43:00,43.0,42.0,-100.00,North,8,1.0,3.0,95,0.00,,,0.00,0.000000,,2013-12-31 09:43:00,
2013-12-31 04:53:00,43.0,42.0,-100.00,North,8,1.0,3.0,95,0.00,,,0.00,0.000000,,2013-12-31 09:53:00,
2013-12-31 05:02:00,43.0,42.0,-100.00,North,8,1.0,3.0,95,0.00,,,0.00,0.000000,,2013-12-31 10:02:00,
2013-12-31 05:13:00,43.0,42.0,-100.00,North,8,1.0,3.0,95,0.00,,,0.00,0.000000,,2013-12-31 10:13:00,
2013-12-31 05:43:00,42.0,41.0,-100.00,SSE,155,1.0,3.0,97,0.00,,,0.00,0.000000,,2013-12-31 10:43:00,
2013-12-31 05:53:00,42.0,41.0,-100.00,SSE,155,1.0,3.0,97,0.00,,,0.00,0.000000,,2013-12-31 10:53:00,
2013-12-31 06:02:00,42.0,41.0,-100.00,SSE,155,1.0,3.0,97,0.00,,,0.00,0.000000,,2013-12-31 11:02:00,
2013-12-31 06:12:00,42.0,41.0,-100.00,SSE,155,1.0,3.0,97,0.00,,,0.00,0.000000,,2013-12-31 11:12:00,
2013-12-31 06:43:00,42.0,41.0,-100.00,SSE,165,2.0,4.0,98,0.00,,,0.00,0.000000,,2013-12-31 11:43:00,
2013-12-31 06:53:00,42.0,41.0,-100.00,SSE,165,2.0,4.0,98,0.00,,,0.00,0.000000,,2013-12-31 11:53:00,
2013-12-31 07:02:00,42.0,41.0,-100.00,SSE,165,2.0,4.0,98,0.00,,,0.00,0.000000,,2013-12-31 12:02:00,
2013-12-31 07:11:00,42.0,41.0,-100.00,SSE,165,2.0,4.0,98,0.00,,,0.00,0.000000,,2013-12-31 12:11:00,
2013-12-31 07:42:00,44.0,43.0,-100.00,South,179,4.0,9.0,96,0.00,,,0.00,0.000000,,2013-12-31 12:42:00,
2013-12-31 07:52:00,44.0,43.0,-100.00,South,179,4.0,9.0,96,0.00,,,0.00,0.000000,,2013-12-31 12:52:00,
2013-12-31 08:02:00,44.0,43.0,-100.00,South,179,4.0,9.0,96,0.00,,,0.00,0.000000,,2013-12-31 13:02:00,
2013-12-31 08:12:00,44.0,43.0,-100.00,South,179,4.0,9.0,96,0.00,,,0.00,0.000000,,2013-12-31 13:12:00,
2013-12-31 08:42:00,44.0,41.0,-100.00,NE,34,6.0,16.0,88,0.00,,,0.00,15.000000,,2013-12-31 13:42:00,
2013-12-31 08:52:00,44.0,41.0,-100.00,NE,34,6.0,16.0,88,0.00,,,0.00,15.000000,,2013-12-31 13:52:00,
2013-12-31 09:02:00,44.0,41.0,-100.00,NE,34,6.0,16.0,88,0.00,,,0.00,15.000000,,2013-12-31 14:02:00,
2013-12-31 09:11:00,44.0,41.0,-100.00,NE,34,6.0,16.0,88,0.00,,,0.00,15.000000,,2013-12-31 14:11:00,
2013-12-31 09:43:00,43.0,39.0,-100.00,ENE,59,5.0,12.0,86,0.00,,,0.00,59.000000,,2013-12-31 14:43:00,
2013-12-31 09:53:00,43.0,39.0,-100.00,ENE,59,5.0,12.0,86,0.00,,,0.00,59.000000,,2013-12-31 14:53:00,
2013-12-31 10:02:00,43.0,39.0,-100.00,ENE,59,5.0,12.0,86,0.00,,,0.00,59.000000,,2013-12-31 15:02:00,
2013-12-31 10:11:00,43.0,39.0,-100.00,ENE,59,5.0,12.0,86,0.00,,,0.00,59.000000,,2013-12-31 15:11:00,
2013-12-31 10:44:00,45.0,39.0,-100.00,SSE,167,2.0,9.0,79,0.00,,,0.00,113.000000,,2013-12-31 15:44:00,
2013-12-31 10:53:00,45.0,39.0,-100.00,SSE,167,2.0,9.0,79,0.00,,,0.00,113.000000,,2013-12-31 15:53:00,
2013-12-31 11:03:00,45.0,39.0,-100.00,SSE,167,2.0,9.0,79,0.00,,,0.00,113.000000,,2013-12-31 16:03:00,
2013-12-31 11:13:00,45.0,39.0,-100.00,SSE,167,2.0,9.0,79,0.00,,,0.00,113.000000,,2013-12-31 16:13:00,
2013-12-31 11:43:00,50.0,38.0,-100.00,SW,216,5.0,11.0,62,0.00,,,-99.99,214.000000,,2013-12-31 16:43:00,
2013-12-31 11:53:00,50.0,38.0,-100.00,SW,216,5.0,11.0,62,0.00,,,-99.99,214.000000,,2013-12-31 16:53:00,
2013-12-31 12:02:00,50.0,38.0,-100.00,SW,216,5.0,11.0,62,0.00,,,-99.99,214.000000,,2013-12-31 17:02:00,
2013-12-31 12:12:00,50.0,38.0,-100.00,SW,216,5.0,11.0,62,0.00,,,-99.99,214.000000,,2013-12-31 17:12:00,
2013-12-31 12:42:00,52.0,33.0,-100.00,SSW,192,6.0,11.0,48,0.00,,,0.00,356.000000,,2013-12-31 17:42:00,
2013-12-31 12:53:00,52.0,33.0,-100.00,SSW,192,6.0,11.0,48,0.00,,,0.00,356.000000,,2013-12-31 17:53:00,
2013-12-31 13:02:00,52.0,33.0,-100.00,SSW,192,6.0,11.0,48,0.00,,,0.00,356.000000,,2013-12-31 18:02:00,
2013-12-31 13:12:00,52.0,33.0,-100.00,SSW,192,6.0,11.0,48,0.00,,,0.00,356.000000,,2013-12-31 18:12:00,
2013-12-31 13:42:00,52.0,32.0,-100.00,SSW,205,5.0,14.0,46,0.00,,,0.00,235.000000,,2013-12-31 18:42:00,
2013-12-31 13:53:00,52.0,32.0,-100.00,SSW,205,5.0,14.0,46,0.00,,,0.00,235.000000,,2013-12-31 18:53:00,
2013-12-31 14:02:00,52.0,32.0,-100.00,SSW,205,5.0,14.0,46,0.00,,,0.00,235.000000,,2013-12-31 19:02:00,
2013-12-31 14:12:00,52.0,32.0,-100.00,SSW,205,5.0,14.0,46,0.00,,,0.00,235.000000,,2013-12-31 19:12:00,
2013-12-31 14:43:00,53.0,32.0,-100.00,SSW,206,8.0,14.0,44,0.00,,,0.00,285.000000,,2013-12-31 19:43:00,
2013-12-31 14:53:00,53.0,32.0,-100.00,SSW,206,8.0,14.0,44,0.00,,,0.00,285.000000,,2013-12-31 19:53:00,
2013-12-31 15:02:00,53.0,32.0,-100.00,SSW,206,8.0,14.0,44,0.00,,,0.00,285.000000,,2013-12-31 20:02:00,
2013-12-31 15:11:00,53.0,32.0,-100.00,SSW,206,8.0,14.0,44,0.00,,,0.00,285.000000,,2013-12-31 20:11:00,
2013-12-31 15:42:00,54.0,30.0,-100.00,SSW,193,6.0,11.0,39,0.00,,,0.00,274.000000,,2013-12-31 20:42:00,
2013-12-31 15:53:00,54.0,30.0,-100.00,SSW,193,6.0,11.0,39,0.00,,,0.00,274.000000,,2013-12-31 20:53:00,
2013-12-31 16:02:00,54.0,30.0,-100.00,SSW,193,6.0,11.0,39,0.00,,,0.00,274.000000,,2013-12-31 21:02:00,
2013-12-31 16:12:00,54.0,30.0,-100.00,SSW,193,6.0,11.0,39,0.00,,,0.00,274.000000,,2013-12-31 21:12:00,
2013-12-31 16:43:00,51.0,30.0,-100.00,SSW,212,5.0,14.0,44,0.00,,,0.00,110.000000,,2013-12-31 21:43:00,
2013-12-31 16:53:00,51.0,30.0,-100.00,SSW,212,5.0,14.0,44,0.00,,,0.00,110.000000,,2013-12-31 21:53:00,
2013-12-31 17:03:00,51.0,30.0,-100.00,SSW,212,5.0,14.0,44,0.00,,,0.00,110.000000,,2013-12-31 22:03:00,
2013-12-31 17:13:00,51.0,30.0,-100.00,SSW,212,5.0,14.0,44,0.00,,,0.00,110.000000,,2013-12-31 22:13:00,
2013-12-31 17:43:00,47.0,33.0,-100.00,SSW,209,2.0,6.0,58,0.00,,,0.00,20.000000,,2013-12-31 22:43:00,
2013-12-31 17:53:00,47.0,33.0,-100.00,SSW,209,2.0,6.0,58,0.00,,,0.00,20.000000,,2013-12-31 22:53:00,
2013-12-31 18:02:00,47.0,33.0,-100.00,SSW,209,2.0,6.0,58,0.00,,,0.00,20.000000,,2013-12-31 23:02:00,
2013-12-31 18:12:00,47.0,33.0,-100.00,SSW,209,2.0,6.0,58,0.00,,,0.00,20.000000,,2013-12-31 23:12:00,
2013-12-31 18:43:00,43.0,36.0,-100.00,North,-999,0.0,3.0,77,0.00,,,0.00,0.000000,,2013-12-31 23:43:00,
2013-12-31 18:53:00,43.0,36.0,-100.00,North,-999,0.0,3.0,77,0.00,,,0.00,0.000000,,2013-12-31 23:53:00,
2013-12-31 19:02:00,43.0,36.0,-100.00,North,-999,0.0,3.0,77,0.00,,,0.00,0.000000,,2014-01-01 00:02:00,
2013-12-31 19:12:00,43.0,36.0,-100.00,North,-999,0.0,3.0,77,0.00,,,0.00,0.000000,,2014-01-01 00:12:00,
2013-12-31 19:42:00,41.0,36.0,-100.00,North,-999,0.0,2.0,81,-99.99,,,-99.99,0.000000,,2014-01-01 00:42:00,
2013-12-31 19:52:00,41.0,36.0,-100.00,North,-999,0.0,2.0,81,-99.99,,,-99.99,0.000000,,2014-01-01 00:52:00,
2013-12-31 20:02:00,41.0,36.0,-100.00,North,-999,0.0,2.0,81,-99.99,,,-99.99,0.000000,,2014-01-01 01:02:00,
2013-12-31 20:11:00,41.0,36.0,-100.00,North,-999,0.0,2.0,81,-99.99,,,-99.99,0.000000,,2014-01-01 01:11:00,
2013-12-31 20:42:00,39.0,36.0,-100.00,SSE,149,2.0,4.0,88,0.00,,,-99.99,0.000000,,2014-01-01 01:42:00,
2013-12-31 20:52:00,39.0,36.0,-100.00,SSE,149,2.0,4.0,88,0.00,,,-99.99,0.000000,,2014-01-01 01:52:00,
2013-12-31 21:02:00,39.0,36.0,-100.00,SSE,149,2.0,4.0,88,0.00,,,-99.99,0.000000,,2014-01-01 02:02:00,
2013-12-31 21:12:00,39.0,36.0,-100.00,SSE,149,2.0,4.0,88,0.00,,,-99.99,0.000000,,2014-01-01 02:12:00,
2013-12-31 21:42:00,38.0,36.0,-100.00,North,-999,0.0,2.0,91,0.00,,,-99.99,0.000000,,2014-01-01 02:42:00,
2013-12-31 21:52:00,38.0,36.0,-100.00,North,-999,0.0,2.0,91,0.00,,,-99.99,0.000000,,2014-01-01 02:52:00,
2013-12-31 22:02:00,38.0,36.0,-100.00,North,-999,0.0,2.0,91,0.00,,,-99.99,0.000000,,2014-01-01 03:02:00,
2013-12-31 22:12:00,38.0,36.0,-100.00,North,-999,0.0,2.0,91,0.00,,,-99.99,0.000000,,2014-01-01 03:12:00,
2013-12-31 22:44:00,37.0,35.0,-100.00,ESE,102,1.0,2.0,94,0.00,,,-99.99,0.000000,,2014-01-01 03:44:00,
2013-12-31 22:53:00,37.0,35.0,-100.00,ESE,102,1.0,2.0,94,0.00,,,-99.99,0.000000,,2014-01-01 03:53:00,
2013-12-31 23:03:00,37.0,35.0,-100.00,ESE,102,1.0,2.0,94,0.00,,,-99.99,0.000000,,2014-01-01 04:03:00,
2013-12-31 23:13:00,37.0,35.0,-100.00,ESE,102,1.0,2.0,94,0.00,,,-99.99,0.000000,,2014-01-01 04:13:00,
2013-12-31 23:43:00,36.0,35.0,-100.00,North,-999,0.0,2.0,96,0.00,,,-99.99,0.000000,,2014-01-01 04:43:00,
2013-12-31 23:53:00,36.0,35.0,-100.00,North,-999,0.0,2.0,96,0.00,,,-99.99,0.000000,,2014-01-01 04:53:00,